Date,TemperatureHighF,TemperatureAvgF,TemperatureLowF,DewpointHighF,DewpointAvgF,DewpointLowF,HumidityHigh,HumidityAvg,HumidityLow,PressureMaxIn,PressureMinIn,WindSpeedMaxMPH,WindSpeedAvgMPH,GustSpeedMaxMPH,PrecipitationSumIn
2013-2-1,32,27,20,24,11,3,85,51,37,0.00,40.00,8,5,22,0.01
2013-2-2,29,24,15,23,12,3,82,62,43,0.00,40.00,5,2,10,0.01
2013-2-3,38,30,23,29,24,16,89,79,54,0.00,40.00,5,2,18,0.00
2013-2-4,38,31,24,29,16,11,86,54,37,0.00,40.00,7,3,19,0.00
2013-2-5,39,35,32,34,30,28,93,85,77,0.00,40.00,2,2,5,0.02
2013-2-6,43,36,28,32,27,20,93,72,50,0.00,40.00,5,2,11,0.01
2013-2-7,40,33,24,27,22,20,85,67,48,0.00,40.00,6,3,14,0.00
2013-2-8,40,37,35,36,30,22,90,76,58,0.00,40.00,8,3,23,0.01
2013-2-9,42,34,26,23,17,12,64,51,33,0.00,40.00,8,5,25,0.01
2013-2-10,46,35,19,22,16,13,83,50,26,0.00,40.00,6,3,13,0.00
2013-2-11,59,48,37,48,36,19,93,70,25,0.00,40.00,6,4,16,0.13
2013-2-12,57,47,35,31,26,23,69,45,30,0.00,40.00,7,4,19,0.01
2013-2-13,44,35,28,33,27,24,99,75,51,0.00,40.00,5,2,10,0.22
2013-2-14,51,38,30,33,29,24,99,72,43,0.00,40.00,4,2,11,0.12
2013-2-15,58,38,30,37,31,24,99,76,39,0.00,40.00,5,2,14,0.17
2013-2-16,37,33,28,35,26,16,100,78,53,0.00,40.00,5,3,13,0.13
2013-2-17,32,26,21,17,12,4,82,56,40,0.00,40.00,7,5,21,0.00
2013-2-18,40,28,14,17,9,4,68,45,26,0.00,40.00,7,3,15,0.00
2013-2-19,50,38,29,40,26,15,87,61,42,0.00,40.00,6,4,19,0.05
2013-2-20,35,29,24,20,12,8,55,49,44,0.00,40.00,7,5,21,0.01
2013-2-21,39,28,23,16,13,9,68,53,38,0.00,40.00,8,5,19,0.00
2013-2-22,31,28,24,28,22,16,88,77,58,0.00,40.00,5,3,12,0.02
2013-2-23,45,36,31,39,33,28,95,89,76,0.00,40.00,4,2,10,0.01
2013-2-24,51,38,28,38,29,17,97,71,36,0.00,40.00,7,4,18,0.00
2013-2-25,46,34,21,25,20,17,88,61,36,0.00,40.00,4,2,9,0.00
2013-2-26,40,35,27,38,29,20,99,79,60,0.00,40.00,7,3,21,0.79
2013-2-27,56,43,36,45,36,31,99,78,46,0.00,40.00,6,3,13,0.61
2013-2-28,45,40,34,34,28,25,73,62,50,0.00,40.00,5,3,12,0.00